Menu Close Menu
Station Historical Data
Daily Summary for September 24, 2017 Units:  English    Metric   Both
« Previous Day
Next Day »
Daily Weekly Monthly Yearly Custom
  High: Low: Average:
Temperature: 84.2 °F 64.8 °F 72.7 °F
Dew Point: 67.7 °F 61.7 °F 64 °F
Humidity: 91% 50% 76%
Wind Speed: 10.0mph 2.0mph 4.4mph
Wind Gust: 10.0mph - -
Wind- - ENE
Pressure: 30.10 in 29.99 in -
Precipitation: 0.00 in    
Historical Graphs
 
 
Tabular Data for September 24, 2017
Time Temperature Dew Point Pressure Wind Wind Speed Wind Gust Humidity Rainfall Rate (Hourly) solar Conditions
00:00 68.6 °F 64.2 °F 30.03 in NE 5.0 mph 5.0 mph 86% 0.00 in WeatherDisplay:10.37 W/m2 FEW
00:05 68.4 °F 64.3 °F 30.03 in NE 5.0 mph 5.0 mph 87% 0.00 in WeatherDisplay:10.37 W/m2 FEW
00:10 68.2 °F 64.2 °F 30.03 in NE 5.0 mph 5.0 mph 87% 0.00 in WeatherDisplay:10.37 W/m2 FEW
00:20 68.1 °F 64.1 °F 30.03 in North 3.0 mph 3.0 mph 87% 0.00 in WeatherDisplay:10.37 W/m2 FEW
00:25 68.0 °F 64.4 °F 30.03 in North 3.0 mph 3.0 mph 88% 0.00 in WeatherDisplay:10.37 W/m2 FEW
00:30 68.0 °F 64.3 °F 30.03 in North 3.0 mph 3.0 mph 88% 0.00 in WeatherDisplay:10.37 W/m2 FEW
00:40 67.9 °F 64.2 °F 30.03 in North 3.0 mph 3.0 mph 88% 0.00 in WeatherDisplay:10.37 W/m2 FEW
00:45 67.9 °F 64.2 °F 30.03 in North 3.0 mph 3.0 mph 88% 0.00 in WeatherDisplay:10.37 W/m2 FEW
00:50 67.8 °F 64.1 °F 30.03 in North 3.0 mph 3.0 mph 88% 0.00 in WeatherDisplay:10.37 W/m2 FEW
00:55 67.7 °F 64.0 °F 30.03 in North 3.0 mph 3.0 mph 88% 0.00 in WeatherDisplay:10.37 W/m2 FEW
01:00 67.7 °F 64.0 °F 30.02 in North 3.0 mph 3.0 mph 88% 0.00 in WeatherDisplay:10.37 W/m2 FEW
01:10 67.7 °F 63.7 °F 30.02 in North 3.0 mph 3.0 mph 87% 0.00 in WeatherDisplay:10.37 W/m2 FEW
01:15 67.7 °F 63.7 °F 30.02 in NNE 3.0 mph 3.0 mph 87% 0.00 in WeatherDisplay:10.37 W/m2 FEW
01:20 67.6 °F 63.9 °F 30.02 in NNE 3.0 mph 3.0 mph 88% 0.00 in WeatherDisplay:10.37 W/m2 FEW
01:25 67.5 °F 63.8 °F 30.02 in NNE 3.0 mph 3.0 mph 88% 0.00 in WeatherDisplay:10.37 W/m2 FEW
01:30 67.5 °F 63.8 °F 30.02 in NNE 3.0 mph 3.0 mph 88% 0.00 in WeatherDisplay:10.37 W/m2 FEW
01:35 67.4 °F 63.7 °F 30.02 in NNE 3.0 mph 3.0 mph 88% 0.00 in WeatherDisplay:10.37 W/m2 FEW
01:40 67.3 °F 63.6 °F 30.02 in NNE 3.0 mph 3.0 mph 88% 0.00 in WeatherDisplay:10.37 W/m2 FEW
01:45 67.3 °F 63.6 °F 30.02 in NNE 3.0 mph 3.0 mph 88% 0.00 in WeatherDisplay:10.37 W/m2 FEW
01:50 67.3 °F 63.6 °F 30.02 in NNE 3.0 mph 3.0 mph 88% 0.00 in WeatherDisplay:10.37 W/m2 FEW
01:55 67.3 °F 63.6 °F 30.02 in NNE 3.0 mph 3.0 mph 88% 0.00 in WeatherDisplay:10.37 W/m2 FEW
02:00 67.2 °F 63.5 °F 30.02 in NNE 3.0 mph 3.0 mph 88% 0.00 in WeatherDisplay:10.37 W/m2 FEW
02:05 67.1 °F 63.4 °F 30.02 in NNE 3.0 mph 3.0 mph 88% 0.00 in WeatherDisplay:10.37 W/m2 FEW
02:10 67.0 °F 63.3 °F 30.03 in NNE 3.0 mph 3.0 mph 88% 0.00 in WeatherDisplay:10.37 W/m2 FEW
02:15 66.9 °F 63.2 °F 30.02 in NNE 3.0 mph 3.0 mph 88% 0.00 in WeatherDisplay:10.37 W/m2 CLR
02:20 66.7 °F 63.4 °F 30.03 in NNE 3.0 mph 3.0 mph 89% 0.00 in WeatherDisplay:10.37 W/m2 CLR
02:25 66.7 °F 63.4 °F 30.03 in NNE 3.0 mph 3.0 mph 89% 0.00 in WeatherDisplay:10.37 W/m2 CLR
02:30 66.6 °F 63.3 °F 30.02 in NNE 3.0 mph 3.0 mph 89% 0.00 in WeatherDisplay:10.37 W/m2 CLR
02:35 66.6 °F 63.3 °F 30.02 in NNE 3.0 mph 3.0 mph 89% 0.00 in WeatherDisplay:10.37 W/m2 CLR
02:40 66.5 °F 63.2 °F 30.02 in NNE 3.0 mph 3.0 mph 89% 0.00 in WeatherDisplay:10.37 W/m2 CLR
02:45 66.4 °F 63.1 °F 30.02 in NNE 3.0 mph 3.0 mph 89% 0.00 in WeatherDisplay:10.37 W/m2 CLR
02:50 66.2 °F 62.9 °F 30.02 in NNE 3.0 mph 3.0 mph 89% 0.00 in WeatherDisplay:10.37 W/m2 CLR
02:55 66.1 °F 62.8 °F 30.02 in NNE 3.0 mph 3.0 mph 89% 0.00 in WeatherDisplay:10.37 W/m2 CLR
03:00 66.0 °F 62.7 °F 30.03 in NNE 3.0 mph 3.0 mph 89% 0.00 in WeatherDisplay:10.37 W/m2 CLR
03:05 65.9 °F 62.9 °F 30.02 in NNE 3.0 mph 3.0 mph 90% 0.00 in WeatherDisplay:10.37 W/m2 CLR
03:10 65.8 °F 62.8 °F 30.02 in NNE 3.0 mph 3.0 mph 90% 0.00 in WeatherDisplay:10.37 W/m2 CLR
03:15 65.8 °F 62.7 °F 30.02 in NNE 3.0 mph 3.0 mph 90% 0.00 in WeatherDisplay:10.37 W/m2 CLR
03:20 65.7 °F 62.7 °F 30.02 in NNE 3.0 mph 3.0 mph 90% 0.00 in WeatherDisplay:10.37 W/m2 CLR
03:25 65.7 °F 62.7 °F 30.02 in NNE 3.0 mph 3.0 mph 90% 0.00 in WeatherDisplay:10.37 W/m2 CLR
03:30 65.7 °F 62.7 °F 30.02 in NNE 3.0 mph 3.0 mph 90% 0.00 in WeatherDisplay:10.37 W/m2 CLR
03:40 65.7 °F 62.7 °F 30.02 in NNE 3.0 mph 3.0 mph 90% 0.00 in WeatherDisplay:10.37 W/m2 CLR
03:45 65.7 °F 62.7 °F 30.02 in NNE 3.0 mph 3.0 mph 90% 0.00 in WeatherDisplay:10.37 W/m2 CLR
03:50 65.7 °F 62.7 °F 30.03 in NNE 3.0 mph 3.0 mph 90% 0.00 in WeatherDisplay:10.37 W/m2 CLR
03:55 65.7 °F 62.7 °F 30.03 in NNE 3.0 mph 3.0 mph 90% 0.00 in WeatherDisplay:10.37 W/m2 CLR
04:00 65.6 °F 62.6 °F 30.03 in NNE 3.0 mph 3.0 mph 90% 0.00 in WeatherDisplay:10.37 W/m2 CLR
04:05 65.6 °F 62.6 °F 30.03 in NNE 3.0 mph 3.0 mph 90% 0.00 in WeatherDisplay:10.37 W/m2 CLR
04:10 65.5 °F 62.5 °F 30.03 in NNE 3.0 mph 3.0 mph 90% 0.00 in WeatherDisplay:10.37 W/m2 CLR
04:15 65.5 °F 62.5 °F 30.03 in NNE 2.0 mph 3.0 mph 90% 0.00 in WeatherDisplay:10.37 W/m2 CLR
04:20 65.4 °F 62.4 °F 30.03 in NNE 2.0 mph 2.0 mph 90% 0.00 in WeatherDisplay:10.37 W/m2 CLR
04:25 65.2 °F 62.2 °F 30.03 in NNE 2.0 mph 2.0 mph 90% 0.00 in WeatherDisplay:10.37 W/m2 CLR
04:30 65.1 °F 62.1 °F 30.03 in NNE 2.0 mph 2.0 mph 90% 0.00 in WeatherDisplay:10.37 W/m2 CLR
04:40 64.9 °F 61.9 °F 30.03 in NNE 2.0 mph 2.0 mph 90% 0.00 in WeatherDisplay:10.37 W/m2 CLR
04:45 64.9 °F 61.9 °F 30.03 in NNE 2.0 mph 2.0 mph 90% 0.00 in WeatherDisplay:10.37 W/m2 CLR
04:50 64.8 °F 61.8 °F 30.03 in NNE 2.0 mph 2.0 mph 90% 0.00 in WeatherDisplay:10.37 W/m2 CLR
04:55 64.8 °F 62.1 °F 30.03 in NNE 2.0 mph 2.0 mph 91% 0.00 in WeatherDisplay:10.37 W/m2 CLR
05:00 64.8 °F 62.1 °F 30.03 in NNE 2.0 mph 2.0 mph 91% 0.00 in WeatherDisplay:10.37 W/m2 CLR
05:05 64.8 °F 62.1 °F 30.03 in NNE 2.0 mph 2.0 mph 91% 0.00 in WeatherDisplay:10.37 W/m2 CLR
05:10 64.9 °F 62.2 °F 30.03 in NNE 2.0 mph 2.0 mph 91% 0.00 in WeatherDisplay:10.37 W/m2 CLR
05:15 65.0 °F 62.3 °F 30.04 in East 2.0 mph 2.0 mph 91% 0.00 in WeatherDisplay:10.37 W/m2 CLR
05:20 65.0 °F 62.3 °F 30.04 in ESE 2.0 mph 2.0 mph 91% 0.00 in WeatherDisplay:10.37 W/m2 CLR
05:30 64.8 °F 61.8 °F 30.04 in ESE 2.0 mph 2.0 mph 90% 0.00 in WeatherDisplay:10.37 W/m2 CLR
05:35 64.9 °F 61.9 °F 30.04 in ESE 2.0 mph 2.0 mph 90% 0.00 in WeatherDisplay:10.37 W/m2 CLR
05:45 64.9 °F 61.9 °F 30.04 in ESE 2.0 mph 2.0 mph 90% 0.00 in WeatherDisplay:10.37 W/m2 CLR
05:50 64.9 °F 61.9 °F 30.04 in ESE 2.0 mph 2.0 mph 90% 0.00 in WeatherDisplay:10.37 W/m2 CLR
05:55 65.0 °F 61.7 °F 30.04 in ESE 2.0 mph 2.0 mph 89% 0.00 in WeatherDisplay:10.37 W/m2 CLR
06:00 65.1 °F 62.1 °F 30.04 in ESE 2.0 mph 2.0 mph 90% 0.00 in WeatherDisplay:10.37 W/m2 CLR
06:05 65.1 °F 61.8 °F 30.04 in ESE 2.0 mph 2.0 mph 89% 0.00 in WeatherDisplay:10.37 W/m2 CLR
06:10 65.0 °F 61.7 °F 30.05 in ESE 2.0 mph 2.0 mph 89% 0.00 in WeatherDisplay:10.37 W/m2 CLR
06:15 65.0 °F 61.7 °F 30.05 in ENE 2.0 mph 2.0 mph 89% 0.00 in WeatherDisplay:10.37 W/m2 CLR
06:20 65.0 °F 61.7 °F 30.05 in NNE 2.0 mph 2.0 mph 89% 0.00 in WeatherDisplay:10.37 W/m2 CLR
06:25 65.0 °F 62.0 °F 30.05 in NNE 2.0 mph 2.0 mph 90% 0.00 in WeatherDisplay:10.37 W/m2 CLR
06:30 65.0 °F 61.7 °F 30.05 in NNE 2.0 mph 2.0 mph 89% 0.00 in WeatherDisplay:10.37 W/m2 CLR
06:40 65.0 °F 62.0 °F 30.06 in NNE 2.0 mph 2.0 mph 90% 0.00 in WeatherDisplay:10.37 W/m2 CLR
06:45 65.0 °F 62.0 °F 30.06 in NNE 2.0 mph 2.0 mph 90% 0.00 in WeatherDisplay:10.37 W/m2 CLR
06:50 65.2 °F 61.9 °F 30.06 in NNE 2.0 mph 2.0 mph 89% 0.00 in WeatherDisplay:10.37 W/m2 CLR
06:55 65.2 °F 61.9 °F 30.06 in NNE 2.0 mph 2.0 mph 89% 0.00 in WeatherDisplay:10.37 W/m2 CLR
07:00 65.3 °F 62.0 °F 30.06 in NNE 2.0 mph 2.0 mph 89% 0.00 in WeatherDisplay:10.37 W/m2 CLR
07:10 65.5 °F 62.2 °F 30.07 in NNE 2.0 mph 2.0 mph 89% 0.00 in WeatherDisplay:10.37 W/m2 CLR
07:15 65.5 °F 62.2 °F 30.07 in NNE 2.0 mph 2.0 mph 89% 0.00 in WeatherDisplay:10.37 W/m2 FEW
07:20 65.5 °F 62.2 °F 30.07 in North 2.0 mph 2.0 mph 89% 0.00 in WeatherDisplay:10.37 W/m2 FEW
07:25 65.5 °F 62.2 °F 30.07 in North 2.0 mph 2.0 mph 89% 0.00 in WeatherDisplay:10.37 W/m2 FEW
07:30 65.5 °F 62.2 °F 30.07 in North 2.0 mph 2.0 mph 89% 0.00 in WeatherDisplay:10.37 W/m2 FEW
07:35 65.6 °F 62.3 °F 30.07 in North 2.0 mph 2.0 mph 89% 0.00 in WeatherDisplay:10.37 W/m2 FEW
07:40 65.7 °F 62.4 °F 30.07 in North 2.0 mph 2.0 mph 89% 0.00 in WeatherDisplay:10.37 W/m2 FEW
07:45 65.8 °F 62.5 °F 30.07 in North 2.0 mph 2.0 mph 89% 0.00 in WeatherDisplay:10.37 W/m2 FEW
07:50 65.7 °F 62.4 °F 30.07 in North 2.0 mph 2.0 mph 89% 0.00 in WeatherDisplay:10.37 W/m2 FEW
07:55 65.7 °F 62.4 °F 30.07 in North 2.0 mph 2.0 mph 89% 0.00 in WeatherDisplay:10.37 W/m2 FEW
08:00 65.7 °F 62.4 °F 30.07 in North 2.0 mph 2.0 mph 89% 0.00 in WeatherDisplay:10.37 W/m2 FEW
08:10 65.9 °F 62.9 °F 30.08 in North 2.0 mph 2.0 mph 90% 0.00 in WeatherDisplay:10.37 W/m2 FEW
08:15 66.0 °F 63.0 °F 30.08 in North 2.0 mph 2.0 mph 90% 0.00 in WeatherDisplay:10.37 W/m2 BKN
08:20 66.1 °F 63.1 °F 30.08 in North 2.0 mph 2.0 mph 90% 0.00 in WeatherDisplay:10.37 W/m2 BKN
08:25 66.3 °F 63.3 °F 30.08 in North 2.0 mph 2.0 mph 90% 0.00 in WeatherDisplay:10.37 W/m2 BKN
08:30 66.5 °F 63.5 °F 30.08 in North 2.0 mph 2.0 mph 90% 0.00 in WeatherDisplay:10.37 W/m2 BKN
08:40 67.0 °F 63.7 °F 30.08 in North 2.0 mph 2.0 mph 89% 0.00 in WeatherDisplay:10.37 W/m2 BKN
08:45 67.3 °F 63.6 °F 30.08 in North 2.0 mph 2.0 mph 88% 0.00 in WeatherDisplay:10.37 W/m2 BKN
08:50 67.6 °F 63.6 °F 30.08 in North 2.0 mph 2.0 mph 87% 0.00 in WeatherDisplay:10.37 W/m2 BKN
08:55 67.9 °F 63.9 °F 30.08 in North 2.0 mph 2.0 mph 87% 0.00 in WeatherDisplay:10.37 W/m2 BKN
09:00 68.3 °F 63.9 °F 30.08 in North 2.0 mph 2.0 mph 86% 0.00 in WeatherDisplay:10.37 W/m2 BKN
09:05 68.6 °F 64.3 °F 30.09 in North 2.0 mph 2.0 mph 86% 0.00 in WeatherDisplay:10.37 W/m2 BKN
09:10 69.1 °F 64.4 °F 30.09 in North 2.0 mph 2.0 mph 85% 0.00 in WeatherDisplay:10.37 W/m2 BKN
09:15 69.6 °F 64.6 °F 30.09 in NE 5.0 mph 5.0 mph 84% 0.00 in WeatherDisplay:10.37 W/m2 BKN
09:20 69.9 °F 64.5 °F 30.09 in NE 5.0 mph 5.0 mph 83% 0.00 in WeatherDisplay:10.37 W/m2 BKN
09:25 70.1 °F 64.7 °F 30.09 in NE 5.0 mph 5.0 mph 83% 0.00 in WeatherDisplay:10.37 W/m2 BKN
09:30 70.3 °F 64.5 °F 30.09 in NE 5.0 mph 5.0 mph 82% 0.00 in WeatherDisplay:10.37 W/m2 BKN
09:40 70.5 °F 64.7 °F 30.09 in NE 5.0 mph 5.0 mph 82% 0.00 in WeatherDisplay:10.37 W/m2 BKN
09:45 70.7 °F 64.9 °F 30.09 in NE 5.0 mph 5.0 mph 82% 0.00 in WeatherDisplay:10.37 W/m2 BKN
09:50 71.0 °F 64.9 °F 30.09 in NE 5.0 mph 5.0 mph 81% 0.00 in WeatherDisplay:10.37 W/m2 BKN
09:55 71.3 °F 65.2 °F 30.09 in NE 5.0 mph 5.0 mph 81% 0.00 in WeatherDisplay:10.37 W/m2 BKN
10:00 71.7 °F 65.2 °F 30.09 in NE 5.0 mph 5.0 mph 80% 0.00 in WeatherDisplay:10.37 W/m2 BKN
10:05 72.1 °F 65.6 °F 30.09 in NE 5.0 mph 5.0 mph 80% 0.00 in WeatherDisplay:10.37 W/m2 BKN
10:10 72.5 °F 66.0 °F 30.09 in NE 5.0 mph 5.0 mph 80% 0.00 in WeatherDisplay:10.37 W/m2 BKN
10:15 72.9 °F 66.4 °F 30.09 in NE 6.0 mph 6.0 mph 80% 0.00 in WeatherDisplay:10.37 W/m2 BKN
10:20 73.3 °F 66.0 °F 30.09 in ENE 6.0 mph 6.0 mph 78% 0.00 in WeatherDisplay:10.37 W/m2 BKN
10:25 73.6 °F 66.3 °F 30.09 in ENE 6.0 mph 6.0 mph 78% 0.00 in WeatherDisplay:10.37 W/m2 BKN
10:30 73.7 °F 66.4 °F 30.09 in ENE 6.0 mph 6.0 mph 78% 0.00 in WeatherDisplay:10.37 W/m2 BKN
10:35 73.9 °F 65.8 °F 30.09 in ENE 6.0 mph 6.0 mph 76% 0.00 in WeatherDisplay:10.37 W/m2 BKN
10:40 74.2 °F 65.7 °F 30.09 in ENE 6.0 mph 6.0 mph 75% 0.00 in WeatherDisplay:10.37 W/m2 BKN
10:45 74.6 °F 65.7 °F 30.09 in ENE 6.0 mph 6.0 mph 74% 0.00 in WeatherDisplay:10.37 W/m2 BKN
10:50 74.6 °F 66.2 °F 30.09 in ENE 6.0 mph 6.0 mph 75% 0.00 in WeatherDisplay:10.37 W/m2 BKN
11:00 75.4 °F 66.2 °F 30.09 in ENE 6.0 mph 6.0 mph 73% 0.00 in WeatherDisplay:10.37 W/m2 BKN
11:10 77.8 °F 67.6 °F 30.10 in ENE 6.0 mph 6.0 mph 71% 0.00 in WeatherDisplay:10.37 W/m2 BKN
11:15 78.1 °F 67.1 °F 30.10 in ENE 7.0 mph 7.0 mph 69% 0.00 in WeatherDisplay:10.37 W/m2 BKN
11:20 78.1 °F 66.7 °F 30.10 in ENE 7.0 mph 7.0 mph 68% 0.00 in WeatherDisplay:10.37 W/m2 BKN
11:25 78.7 °F 67.6 °F 30.09 in ENE 7.0 mph 7.0 mph 69% 0.00 in WeatherDisplay:10.37 W/m2 BKN
11:30 79.6 °F 67.7 °F 30.09 in ENE 7.0 mph 7.0 mph 67% 0.00 in WeatherDisplay:10.37 W/m2 BKN
11:35 80.5 °F 67.6 °F 30.09 in ENE 7.0 mph 7.0 mph 65% 0.00 in WeatherDisplay:10.37 W/m2 BKN
11:40 80.7 °F 66.5 °F 30.09 in ENE 7.0 mph 7.0 mph 62% 0.00 in WeatherDisplay:10.37 W/m2 BKN
11:45 80.8 °F 65.6 °F 30.09 in ENE 7.0 mph 7.0 mph 60% 0.00 in WeatherDisplay:10.37 W/m2 BKN
11:50 80.9 °F 65.2 °F 30.09 in ENE 7.0 mph 7.0 mph 59% 0.00 in WeatherDisplay:10.37 W/m2 BKN
11:55 80.7 °F 64.5 °F 30.09 in ENE 7.0 mph 7.0 mph 58% 0.00 in WeatherDisplay:10.37 W/m2 BKN
12:00 80.3 °F 64.6 °F 30.08 in ENE 7.0 mph 7.0 mph 59% 0.00 in WeatherDisplay:10.37 W/m2 BKN
12:10 81.0 °F 65.8 °F 30.08 in ENE 7.0 mph 7.0 mph 60% 0.00 in WeatherDisplay:10.37 W/m2 BKN
12:20 81.9 °F 65.7 °F 30.08 in ENE 10.0 mph 10.0 mph 58% 0.00 in WeatherDisplay:10.37 W/m2 BKN
12:25 82.0 °F 63.7 °F 30.08 in ENE 10.0 mph 10.0 mph 54% 0.00 in WeatherDisplay:10.37 W/m2 BKN
12:30 82.3 °F 64.6 °F 30.08 in ENE 10.0 mph 10.0 mph 55% 0.00 in WeatherDisplay:10.37 W/m2 BKN
12:35 82.2 °F 63.9 °F 30.08 in ENE 10.0 mph 10.0 mph 54% 0.00 in WeatherDisplay:10.37 W/m2 BKN
12:40 82.3 °F 64.0 °F 30.08 in ENE 10.0 mph 10.0 mph 54% 0.00 in WeatherDisplay:10.37 W/m2 BKN
12:45 82.9 °F 65.1 °F 30.07 in ENE 10.0 mph 10.0 mph 55% 0.00 in WeatherDisplay:10.37 W/m2 BKN
12:50 83.3 °F 63.3 °F 30.07 in ENE 10.0 mph 10.0 mph 51% 0.00 in WeatherDisplay:10.37 W/m2 BKN
12:55 83.0 °F 64.1 °F 30.07 in ENE 10.0 mph 10.0 mph 53% 0.00 in WeatherDisplay:10.37 W/m2 BKN
13:00 83.1 °F 63.1 °F 30.07 in ENE 10.0 mph 10.0 mph 51% 0.00 in WeatherDisplay:10.37 W/m2 BKN
13:10 83.0 °F 63.6 °F 30.07 in ENE 10.0 mph 10.0 mph 52% 0.00 in WeatherDisplay:10.37 W/m2 BKN
13:15 82.9 °F 62.9 °F 30.07 in ENE 9.0 mph 10.0 mph 51% 0.00 in WeatherDisplay:10.37 W/m2 BKN
13:20 82.7 °F 62.2 °F 30.07 in NE 9.0 mph 9.0 mph 50% 0.00 in WeatherDisplay:10.37 W/m2 BKN
13:25 82.6 °F 62.6 °F 30.06 in NE 9.0 mph 9.0 mph 51% 0.00 in WeatherDisplay:10.37 W/m2 BKN
13:30 82.4 °F 61.9 °F 30.06 in NE 9.0 mph 9.0 mph 50% 0.00 in WeatherDisplay:10.37 W/m2 BKN
13:35 82.4 °F 63.0 °F 30.06 in NE 9.0 mph 9.0 mph 52% 0.00 in WeatherDisplay:10.37 W/m2 BKN
13:40 82.7 °F 63.9 °F 30.05 in NE 9.0 mph 9.0 mph 53% 0.00 in WeatherDisplay:10.37 W/m2 BKN
13:45 82.9 °F 62.3 °F 30.05 in NE 9.0 mph 9.0 mph 50% 0.00 in WeatherDisplay:10.37 W/m2 BKN
13:50 82.8 °F 63.4 °F 30.05 in NE 9.0 mph 9.0 mph 52% 0.00 in WeatherDisplay:10.37 W/m2 BKN
13:55 82.9 °F 63.5 °F 30.05 in NE 9.0 mph 9.0 mph 52% 0.00 in WeatherDisplay:10.37 W/m2 BKN
14:00 82.9 °F 63.5 °F 30.04 in NE 9.0 mph 9.0 mph 52% 0.00 in WeatherDisplay:10.37 W/m2 BKN
14:05 82.8 °F 63.9 °F 30.05 in NE 9.0 mph 9.0 mph 53% 0.00 in WeatherDisplay:10.37 W/m2 BKN
14:10 82.9 °F 63.5 °F 30.04 in NE 9.0 mph 9.0 mph 52% 0.00 in WeatherDisplay:10.37 W/m2 BKN
14:15 82.8 °F 62.8 °F 30.04 in NE 9.0 mph 9.0 mph 51% 0.00 in WeatherDisplay:10.37 W/m2 BKN
14:20 82.9 °F 63.5 °F 30.04 in NE 9.0 mph 9.0 mph 52% 0.00 in WeatherDisplay:10.37 W/m2 BKN
14:25 83.1 °F 64.2 °F 30.04 in NE 9.0 mph 9.0 mph 53% 0.00 in WeatherDisplay:10.37 W/m2 BKN
14:30 83.1 °F 64.2 °F 30.04 in NE 9.0 mph 9.0 mph 53% 0.00 in WeatherDisplay:10.37 W/m2 BKN
14:40 83.7 °F 63.6 °F 30.03 in NE 9.0 mph 9.0 mph 51% 0.00 in WeatherDisplay:10.37 W/m2 BKN
14:45 84.2 °F 64.1 °F 30.03 in NE 9.0 mph 9.0 mph 51% 0.00 in WeatherDisplay:10.37 W/m2 BKN
14:50 84.2 °F 64.7 °F 30.03 in NE 9.0 mph 9.0 mph 52% 0.00 in WeatherDisplay:10.37 W/m2 BKN
14:55 84.1 °F 63.5 °F 30.03 in NE 9.0 mph 9.0 mph 50% 0.00 in WeatherDisplay:10.37 W/m2 BKN
15:00 84.1 °F 64.0 °F 30.03 in NE 9.0 mph 9.0 mph 51% 0.00 in WeatherDisplay:10.37 W/m2 BKN
15:10 82.9 °F 62.9 °F 30.03 in NE 9.0 mph 9.0 mph 51% 0.00 in WeatherDisplay:10.37 W/m2 BKN
15:15 82.4 °F 63.5 °F 30.03 in ENE 8.0 mph 9.0 mph 53% 0.00 in WeatherDisplay:10.37 W/m2 BKN
15:20 81.9 °F 63.7 °F 30.03 in East 8.0 mph 8.0 mph 54% 0.00 in WeatherDisplay:10.37 W/m2 BKN
15:25 81.8 °F 64.1 °F 30.03 in East 8.0 mph 8.0 mph 55% 0.00 in WeatherDisplay:10.37 W/m2 BKN
15:30 81.9 °F 64.7 °F 30.03 in East 8.0 mph 8.0 mph 56% 0.00 in WeatherDisplay:10.37 W/m2 BKN
15:35 81.9 °F 63.6 °F 30.03 in East 8.0 mph 8.0 mph 54% 0.00 in WeatherDisplay:10.37 W/m2 BKN
15:40 81.6 °F 64.4 °F 30.03 in East 8.0 mph 8.0 mph 56% 0.00 in WeatherDisplay:10.37 W/m2 BKN
15:45 81.3 °F 64.6 °F 30.03 in East 8.0 mph 8.0 mph 57% 0.00 in WeatherDisplay:10.37 W/m2 BKN
15:50 81.1 °F 64.9 °F 30.03 in East 8.0 mph 8.0 mph 58% 0.00 in WeatherDisplay:10.37 W/m2 BKN
15:55 81.1 °F 64.4 °F 30.03 in East 8.0 mph 8.0 mph 57% 0.00 in WeatherDisplay:10.37 W/m2 BKN
16:00 81.0 °F 64.3 °F 30.03 in East 8.0 mph 8.0 mph 57% 0.00 in WeatherDisplay:10.37 W/m2 BKN
16:10 80.7 °F 64.1 °F 30.02 in East 8.0 mph 8.0 mph 57% 0.00 in WeatherDisplay:10.37 W/m2 BKN
16:15 81.2 °F 65.0 °F 30.02 in ENE 7.0 mph 8.0 mph 58% 0.00 in WeatherDisplay:10.37 W/m2 BKN
16:20 81.5 °F 64.3 °F 30.01 in ENE 7.0 mph 7.0 mph 56% 0.00 in WeatherDisplay:10.37 W/m2 BKN
16:25 81.9 °F 65.7 °F 30.01 in ENE 7.0 mph 7.0 mph 58% 0.00 in WeatherDisplay:10.37 W/m2 BKN
16:30 82.1 °F 64.3 °F 30.01 in ENE 7.0 mph 7.0 mph 55% 0.00 in WeatherDisplay:10.37 W/m2 BKN
16:35 82.3 °F 64.5 °F 30.01 in ENE 7.0 mph 7.0 mph 55% 0.00 in WeatherDisplay:10.37 W/m2 BKN
16:40 82.3 °F 64.5 °F 30.01 in ENE 7.0 mph 7.0 mph 55% 0.00 in WeatherDisplay:10.37 W/m2 BKN
16:45 82.3 °F 65.5 °F 30.00 in ENE 7.0 mph 7.0 mph 57% 0.00 in WeatherDisplay:10.37 W/m2 BKN
16:50 82.2 °F 63.9 °F 30.00 in ENE 7.0 mph 7.0 mph 54% 0.00 in WeatherDisplay:10.37 W/m2 BKN
17:00 81.7 °F 64.0 °F 30.00 in ENE 7.0 mph 7.0 mph 55% 0.00 in WeatherDisplay:10.37 W/m2 BKN
17:10 81.5 °F 64.3 °F 30.00 in ENE 7.0 mph 7.0 mph 56% 0.00 in WeatherDisplay:10.37 W/m2 BKN
17:15 81.5 °F 64.3 °F 30.00 in ENE 5.0 mph 7.0 mph 56% 0.00 in WeatherDisplay:10.37 W/m2 FEW
17:20 81.4 °F 64.7 °F 30.00 in ENE 5.0 mph 5.0 mph 57% 0.00 in WeatherDisplay:10.37 W/m2 FEW
17:25 81.4 °F 65.2 °F 30.00 in ENE 5.0 mph 5.0 mph 58% 0.00 in WeatherDisplay:10.37 W/m2 FEW
17:30 81.3 °F 65.6 °F 30.00 in ENE 5.0 mph 5.0 mph 59% 0.00 in WeatherDisplay:10.37 W/m2 FEW
17:35 80.8 °F 64.6 °F 30.00 in ENE 5.0 mph 5.0 mph 58% 0.00 in WeatherDisplay:10.37 W/m2 FEW
17:40 80.3 °F 64.7 °F 30.00 in ENE 5.0 mph 5.0 mph 59% 0.00 in WeatherDisplay:10.37 W/m2 FEW
17:45 79.9 °F 64.8 °F 30.00 in ENE 5.0 mph 5.0 mph 60% 0.00 in WeatherDisplay:10.37 W/m2 FEW
17:55 79.1 °F 65.4 °F 30.00 in ENE 5.0 mph 5.0 mph 63% 0.00 in WeatherDisplay:10.37 W/m2 FEW
18:00 78.7 °F 65.5 °F 29.99 in ENE 5.0 mph 5.0 mph 64% 0.00 in WeatherDisplay:10.37 W/m2 FEW
18:05 78.4 °F 65.7 °F 30.00 in ENE 5.0 mph 5.0 mph 65% 0.00 in WeatherDisplay:10.37 W/m2 FEW
18:10 78.2 °F 65.9 °F 30.00 in ENE 5.0 mph 5.0 mph 66% 0.00 in WeatherDisplay:10.37 W/m2 FEW
18:15 78.1 °F 65.8 °F 30.00 in ENE 5.0 mph 5.0 mph 66% 0.00 in WeatherDisplay:10.37 W/m2 FEW
18:20 78.0 °F 65.3 °F 30.00 in ENE 5.0 mph 5.0 mph 65% 0.00 in WeatherDisplay:10.37 W/m2 FEW
18:25 77.8 °F 65.5 °F 30.00 in ENE 5.0 mph 5.0 mph 66% 0.00 in WeatherDisplay:10.37 W/m2 FEW
18:30 77.6 °F 65.3 °F 30.00 in ENE 5.0 mph 5.0 mph 66% 0.00 in WeatherDisplay:10.37 W/m2 FEW
18:40 77.5 °F 65.2 °F 30.00 in ENE 5.0 mph 5.0 mph 66% 0.00 in WeatherDisplay:10.37 W/m2 FEW
18:45 77.4 °F 65.2 °F 30.01 in ENE 5.0 mph 5.0 mph 66% 0.00 in WeatherDisplay:10.37 W/m2 FEW
18:55 77.1 °F 65.3 °F 30.01 in ENE 5.0 mph 5.0 mph 67% 0.00 in WeatherDisplay:10.37 W/m2 FEW
19:00 76.8 °F 65.4 °F 30.01 in ENE 5.0 mph 5.0 mph 68% 0.00 in WeatherDisplay:10.37 W/m2 FEW
19:05 76.5 °F 65.6 °F 30.01 in ENE 5.0 mph 5.0 mph 69% 0.00 in WeatherDisplay:10.37 W/m2 FEW
19:10 76.3 °F 65.4 °F 30.01 in ENE 5.0 mph 5.0 mph 69% 0.00 in WeatherDisplay:10.37 W/m2 FEW
19:15 76.0 °F 65.5 °F 30.01 in ENE 3.0 mph 5.0 mph 70% 0.00 in WeatherDisplay:10.37 W/m2 FEW
19:20 75.7 °F 65.2 °F 30.01 in ENE 3.0 mph 3.0 mph 70% 0.00 in WeatherDisplay:10.37 W/m2 FEW
19:25 75.5 °F 65.4 °F 30.01 in ENE 3.0 mph 3.0 mph 71% 0.00 in WeatherDisplay:10.37 W/m2 FEW
19:30 75.2 °F 65.2 °F 30.01 in ENE 3.0 mph 3.0 mph 71% 0.00 in WeatherDisplay:10.37 W/m2 FEW
19:40 74.7 °F 65.5 °F 30.01 in ENE 3.0 mph 3.0 mph 73% 0.00 in WeatherDisplay:10.37 W/m2 FEW
19:45 74.5 °F 65.3 °F 30.01 in ENE 3.0 mph 3.0 mph 73% 0.00 in WeatherDisplay:10.37 W/m2 FEW
19:50 74.3 °F 65.5 °F 30.01 in ENE 3.0 mph 3.0 mph 74% 0.00 in WeatherDisplay:10.37 W/m2 FEW
19:55 74.0 °F 65.6 °F 30.01 in ENE 3.0 mph 3.0 mph 75% 0.00 in WeatherDisplay:10.37 W/m2 FEW
20:00 73.8 °F 65.4 °F 30.01 in ENE 3.0 mph 3.0 mph 75% 0.00 in WeatherDisplay:10.37 W/m2 FEW
20:05 73.5 °F 64.7 °F 30.01 in ENE 3.0 mph 3.0 mph 74% 0.00 in WeatherDisplay:10.37 W/m2 FEW
20:10 73.3 °F 64.9 °F 30.01 in ENE 3.0 mph 3.0 mph 75% 0.00 in WeatherDisplay:10.37 W/m2 FEW
20:15 73.2 °F 64.8 °F 30.01 in ENE 2.0 mph 3.0 mph 75% 0.00 in WeatherDisplay:10.37 W/m2 FEW
20:20 73.0 °F 65.0 °F 30.01 in ENE 2.0 mph 2.0 mph 76% 0.00 in WeatherDisplay:10.37 W/m2 FEW
20:25 72.8 °F 64.8 °F 30.01 in ENE 2.0 mph 2.0 mph 76% 0.00 in WeatherDisplay:10.37 W/m2 FEW
20:30 72.6 °F 64.6 °F 30.01 in ENE 2.0 mph 2.0 mph 76% 0.00 in WeatherDisplay:10.37 W/m2 FEW
20:35 72.4 °F 64.4 °F 30.01 in ENE 2.0 mph 2.0 mph 76% 0.00 in WeatherDisplay:10.37 W/m2 FEW
20:40 72.3 °F 64.7 °F 30.01 in ENE 2.0 mph 2.0 mph 77% 0.00 in WeatherDisplay:10.37 W/m2 FEW
20:45 72.2 °F 64.6 °F 30.01 in ENE 2.0 mph 2.0 mph 77% 0.00 in WeatherDisplay:10.37 W/m2 FEW
20:50 72.0 °F 64.4 °F 30.01 in ENE 2.0 mph 2.0 mph 77% 0.00 in WeatherDisplay:10.37 W/m2 FEW
20:55 71.8 °F 64.6 °F 30.01 in ENE 2.0 mph 2.0 mph 78% 0.00 in WeatherDisplay:10.37 W/m2 FEW
21:00 71.5 °F 64.3 °F 30.01 in ENE 2.0 mph 2.0 mph 78% 0.00 in WeatherDisplay:10.37 W/m2 FEW
21:10 71.2 °F 64.3 °F 30.01 in ENE 2.0 mph 2.0 mph 79% 0.00 in WeatherDisplay:10.37 W/m2 FEW
21:15 71.0 °F 64.1 °F 30.02 in NE 2.0 mph 2.0 mph 79% 0.00 in WeatherDisplay:10.37 W/m2 FEW
21:20 70.8 °F 64.0 °F 30.02 in NNE 2.0 mph 2.0 mph 79% 0.00 in WeatherDisplay:10.37 W/m2 FEW
21:25 70.7 °F 64.2 °F 30.02 in NNE 2.0 mph 2.0 mph 80% 0.00 in WeatherDisplay:10.37 W/m2 FEW
21:30 70.6 °F 64.1 °F 30.02 in NNE 2.0 mph 2.0 mph 80% 0.00 in WeatherDisplay:10.37 W/m2 FEW
21:40 70.4 °F 64.6 °F 30.02 in NNE 2.0 mph 2.0 mph 82% 0.00 in WeatherDisplay:10.37 W/m2 FEW
21:45 70.3 °F 64.5 °F 30.02 in NNE 2.0 mph 2.0 mph 82% 0.00 in WeatherDisplay:10.37 W/m2 FEW
21:50 70.2 °F 64.1 °F 30.02 in NNE 2.0 mph 2.0 mph 81% 0.00 in WeatherDisplay:10.37 W/m2 FEW
21:55 70.1 °F 64.3 °F 30.01 in NNE 2.0 mph 2.0 mph 82% 0.00 in WeatherDisplay:10.37 W/m2 FEW
22:00 70.1 °F 64.3 °F 30.01 in NNE 2.0 mph 2.0 mph 82% 0.00 in WeatherDisplay:10.37 W/m2 FEW
22:05 69.9 °F 64.5 °F 30.01 in NNE 2.0 mph 2.0 mph 83% 0.00 in WeatherDisplay:10.37 W/m2 FEW
22:10 69.8 °F 64.4 °F 30.02 in NNE 2.0 mph 2.0 mph 83% 0.00 in WeatherDisplay:10.37 W/m2 FEW
22:15 69.7 °F 64.3 °F 30.02 in NNE 2.0 mph 2.0 mph 83% 0.00 in WeatherDisplay:10.37 W/m2 CLR
22:20 69.5 °F 64.1 °F 30.02 in NNE 2.0 mph 2.0 mph 83% 0.00 in WeatherDisplay:10.37 W/m2 CLR
22:25 69.4 °F 64.4 °F 30.02 in NNE 2.0 mph 2.0 mph 84% 0.00 in WeatherDisplay:10.37 W/m2 CLR
22:30 69.3 °F 64.3 °F 30.02 in NNE 2.0 mph 2.0 mph 84% 0.00 in WeatherDisplay:10.37 W/m2 CLR
22:35 69.2 °F 64.1 °F 30.02 in NNE 2.0 mph 2.0 mph 84% 0.00 in WeatherDisplay:10.37 W/m2 CLR
22:40 69.1 °F 64.0 °F 30.02 in NNE 2.0 mph 2.0 mph 84% 0.00 in WeatherDisplay:10.37 W/m2 CLR
22:45 69.0 °F 64.3 °F 30.02 in NNE 2.0 mph 2.0 mph 85% 0.00 in WeatherDisplay:10.37 W/m2 CLR
22:50 68.8 °F 64.1 °F 30.02 in NNE 2.0 mph 2.0 mph 85% 0.00 in WeatherDisplay:10.37 W/m2 CLR
22:55 68.8 °F 64.1 °F 30.03 in NNE 2.0 mph 2.0 mph 85% 0.00 in WeatherDisplay:10.37 W/m2 CLR
23:00 68.6 °F 63.9 °F 30.03 in NNE 2.0 mph 2.0 mph 85% 0.00 in WeatherDisplay:10.37 W/m2 CLR
23:10 68.4 °F 64.1 °F 30.02 in NNE 2.0 mph 2.0 mph 86% 0.00 in WeatherDisplay:10.37 W/m2 CLR
23:25 68.2 °F 63.9 °F 30.03 in North 3.0 mph 3.0 mph 86% 0.00 in WeatherDisplay:10.37 W/m2 CLR
23:30 68.2 °F 63.9 °F 30.03 in North 3.0 mph 3.0 mph 86% 0.00 in WeatherDisplay:10.37 W/m2 CLR
23:35 68.1 °F 63.8 °F 30.03 in North 3.0 mph 3.0 mph 86% 0.00 in WeatherDisplay:10.37 W/m2 CLR
23:40 68.0 °F 64.0 °F 30.02 in North 3.0 mph 3.0 mph 87% 0.00 in WeatherDisplay:10.37 W/m2 CLR
23:45 68.0 °F 64.0 °F 30.02 in North 3.0 mph 3.0 mph 87% 0.00 in WeatherDisplay:10.37 W/m2 CLR
23:50 67.9 °F 63.9 °F 30.02 in North 3.0 mph 3.0 mph 87% 0.00 in WeatherDisplay:10.37 W/m2 CLR
23:55 67.8 °F 63.8 °F 30.02 in North 3.0 mph 3.0 mph 87% 0.00 in WeatherDisplay:10.37 W/m2 CLR
Piedmont Bend
Compliments of Weather Underground - 4 mb